Regional Weather Roundup
Issued by NWS Kansas City/Pleasant Hill, MO

Home | Current Version | Previous Version | Graphics & Text | Print | Product List | Glossary Off
Versions: 1 2 3 4 5 6 7 8 9 10 11 12 13 14 15 16 17 18 19 20 21 22 23 24 25 26 27 28 29 30 31 32 33 34 35 36 37 38 39 40 41 42 43 44 45 46 47 48 49 50

677
ASUS43 KEAX 240810
RWREAX

WEATHER ROUNDUP FOR EASTERN KANSAS AND NORTHWEST MISSOURI
NATIONAL WEATHER SERVICE KANSAS CITY/PLEASANT HILL MO
300 AM CDT SAT JUN 24 2017

KSZ040-057-103>105-MOZ028-029-037-043-240900-
...KANSAS CITY METROPOLITAN AREA...

CITY           SKY/WX    TMP DP  RH WIND       PRES   REMARKS
K.C. INTL      CLEAR     59  55  87 NW7       30.11R
K.C. DOWNTOWN  PTCLDY    64  55  72 NW5       30.10R
LEES SUMMIT    CLEAR     63  55  75 NW7       30.11R
OLATHE - IXD   CLEAR     62  54  74 NW9       30.12R
OLATHE - OJC   CLEAR     64  54  69 NW8       30.11R
LAWRENCE       PTCLDY    58  56  93 W6        30.13R

$$

MOZ001>008-011>017-020>025-030>033-038>040-044>046-053-054-240900-
...NORTHERN AND CENTRAL MISSOURI...

CITY           SKY/WX    TMP DP  RH WIND       PRES   REMARKS
ST. JOSEPH     CLEAR     57  56  96 CALM      30.11S
MOSBY          MOSUNNY   59  57  94 CALM      30.10R
WARRENSBURG    CLEAR     59  54  82 W3        30.08S
WHITEMAN AFB   CLEAR     62  59  90 W6        30.07S
CLINTON        CLEAR     57  55  94 CALM      30.10R
SEDALIA        CLEAR     61  57  87 W3        30.09R
WARSAW         NOT AVBL
CHILLICOTHE      N/A     63  54  72 VRB3      30.09R
KIRKSVILLE     CLEAR     61  53  75 NW9       30.06R

$$

MOZ041-047>049-056>058-063>065-088>090-097-240900-
...EASTERN AND SOUTHERN MISSOURI...

CITY           SKY/WX    TMP DP  RH WIND       PRES   REMARKS
ST. LOUIS INTL CLEAR     68  56  65 NW8       30.00S
SPIRIT OF STL  CLEAR     64  56  75 W3        30.01R
COLUMBIA       PTCLDY    62  55  77 NW6       30.06R
JEFFERSON CITY CLEAR     64  55  72 NW5       30.06R
ROLLA          CLEAR     61  54  77 NW7       30.05R
OSAGE BEACH    CLEAR     63  54  72 VRB3      30.08R
SPRINGFIELD    CLEAR     64  54  69 N3        30.09S
BRANSON        PTCLDY    63  57  82 NW8       30.10S
JOPLIN         CLEAR     64  57  78 N5        30.11R
WEST PLAINS    CLOUDY    64  54  69 N7        30.07S

$$

IAZ060-094-KSZ022-034>040-054-083-096-NEZ052-066-093-240900-
...KANSAS...SOUTHEAST NEBRASKA AND IOWA...

CITY           SKY/WX    TMP DP  RH WIND       PRES   REMARKS
TOPEKA         CLEAR     60  57  89 CALM      30.13R
MANHATTAN      PTCLDY    57  52  83 W3        30.15R
EMPORIA        PTCLDY    58  55  90 NW3       30.15R
CHANUTE        CLEAR     62  55  77 N5        30.12S
WICHITA        MOCLDY    68  55  63 N7        30.14S
OMAHA          PTCLDY    55  48  77 N3        30.13S
LINCOLN        CLEAR     52  49  89 NW3       30.17R
FALLS CITY     CLEAR     56  52  86 NW7       30.12R
LAMONI         PTCLDY    57  51  80 W7        30.09R
DES MOINES     PTCLDY    57  50  77 W5        30.06R

$$





USA.gov is the U.S. government's official web portal to all federal, state and local government web resources and services.